RH
87 97 97 75 70 66 90 86 45 26 26 30 32 32 36 40 38 38 41 48 51 56 58 59 66 56 43 37 28 27 31 26 31 32 39 41 66 43 36 36 39 43 45 44
94 96 67 77 90 97 97 89 36 24 29 25 24 35 34 36 36 36 38 43 47 53 56 63 70 52 42 37 33 32 33 30 37 35 38 42 45 42 36 34 40 44 45 40
92 92 75 90 98 100 87 51 33 43 34 23 23 38 41 36 35 35 36 40 44 48 51 60 67 52 44 40 36 34 34 35 39 36 42 44 44 39 31 33 37 43 44 39
97 90 89 84 94 95 55 31 28 34 40 39 27 49 42 38 38 35 35 36 38 42 44 50 59 54 40 39 36 38 36 38 42 40 44 46 46 44 32 33 36 42 43 39
98 93 93 86 77 69 60 30 39 30 31 24 32 46 36 34 39 34 33 34 33 37 40 46 53 40 38 39 36 35 38 41 43 44 46 46 43 35 32 33 35 39 40 41
89 92 91 76 74 52 35 35 38 31 28 53 28 32 34 36 32 31 28 30 31 33 37 40 47 44 42 38 36 38 39 42 45 46 47 48 43 36 36 39 42 44 42 41
96 91 62 58 50 36 35 45 77 74 89 57 30 32 21 24 23 25 26 26 28 30 31 35 35 34 34 32 34 37 41 44 44 47 48 49 40 41 42 46 52 54 51 50
94 89 64 46 43 39 35 48 68 77 57 52 36 39 22 23 28 32 23 24 26 29 28 33 28 23 25 27 30 34 37 44 42 47 51 42 41 46 43 48 54 54 49 48
67 78 45 43 40 36 36 51 39 47 38 40 38 26 29 33 42 34 33 30 33 33 40 52 38 32 24 23 24 25 32 38 48 50 41 42 44 44 45 49 49 47 46 48
46 69 47 42 40 35 35 28 56 56 60 42 37 29 35 37 41 37 40 37 40 46 56 61 54 49 50 40 38 40 47 49 43 40 41 44 50 49 52 56 55 50 45 44
38 41 50 42 46 37 34 35 38 36 36 33 32 29 26 30 32 40 38 41 48 56 61 65 63 49 45 44 41 38 34 30 29 30 36 41 46 51 59 53 43 39 39 39
38 41 54 48 47 45 43 34 30 32 29 28 24 28 29 30 29 35 38 46 52 57 60 54 48 41 33 30 27 27 26 26 27 30 32 34 39 40 39 38 36 36 34 31
45 42 58 49 39 42 43 37 34 30 31 31 33 28 35 36 32 34 41 46 53 56 48 43 41 39 39 33 30 26 26 26 27 29 33 37 38 37 36 34 30 31 29 26
51 38 42 55 44 39 42 40 34 33 40 26 22 20 37 39 35 37 40 47 50 46 40 38 37 38 41 37 29 29 28 28 28 32 37 38 37 33 32 31 23 16 12 8
45 54 50 38 44 44 44 36 37 36 28 29 24 20 21 34 33 38 41 43 43 39 37 36 36 38 41 30 29 30 29 31 34 37 38 33 34 32 22 12 8 6 6 8
44 60 46 56 41 40 46 33 33 36 33 32 26 24 16 26 31 36 38 39 39 37 36 37 37 40 39 30 31 31 32 35 37 34 35 35 27 12 10 8 9 13 14 15
46 52 53 47 40 39 42 30 30 31 33 26 27 21 20 28 31 34 35 37 38 37 36 36 40 38 35 32 32 34 36 35 35 38 34 18 11 10 10 15 18 20 17 11
44 44 57 56 34 49 25 26 29 27 26 27 23 26 24 27 29 35 36 36 34 35 35 38 40 41 34 33 35 36 35 36 38 32 16 12 11 14 18 21 21 15 11 9
39 37 41 47 34 25 21 24 29 30 22 24 29 25 26 35 34 34 38 35 32 31 35 38 41 37 35 34 36 36 38 40 31 17 13 12 15 19 23 20 15 13 9 7
42 37 38 35 37 30 17 24 27 26 20 20 24 24 25 34 31 22 38 39 33 34 38 40 41 36 35 37 37 39 42 30 17 14 13 16 20 23 19 16 13 9 8 8
53 48 48 41 38 27 22 26 30 23 23 28 33 38 37 36 35 43 42 41 40 43 42 36 34 36 42 39 41 41 28 16 14 14 16 22 23 20 17 13 8 7 8 10
41 47 47 40 43 49 25 32 23 24 33 35 42 49 42 41 46 48 51 51 52 44 38 38 38 41 40 42 41 28 17 15 15 18 23 24 21 16 10 7 7 9 11 14
35 31 26 32 29 20 26 29 28 32 31 38 42 49 47 50 54 57 59 58 48 41 40 41 42 42 44 40 27 17 15 16 21 24 22 18 12 8 7 9 10 12 12 15
30 32 29 28 20 24 24 27 33 32 36 33 32 45 46 48 54 56 56 52 46 43 44 45 46 46 39 26 17 16 20 23 24 22 15 9 7 8 10 13 14 16 18 22
34 37 29 27 22 25 29 31 29 33 36 33 33 39 45 45 49 48 49 49 47 45 45 47 44 33 22 17 19 23 24 23 17 10 8 11 13 15 17 20 22 26 27 30
37 32 34 26 26 25 34 38 35 39 37 39 37 40 45 46 42 43 44 44 44 47 45 36 24 18 18 22 24 23 17 11 10 12 14 16 19 20 22 24 26 26 26 29
Wind_Speed
11 4 9 16 16 14 17 22 24 24 18 22 18 18 12 17 19 21 24 26 25 23 21 18 18 18 18 16 15 12 9 7 7 4 3 3 2 6 7 6 6 5 4 4
2 11 15 7 5 12 20 22 21 22 12 21 19 17 12 15 18 23 26 27 26 23 21 19 19 19 19 16 14 13 10 8 7 5 5 5 4 6 6 7 6 5 5 5
7 3 7 11 6 10 15 22 19 13 13 21 18 16 12 12 16 18 20 22 23 25 24 21 21 21 19 17 15 14 11 10 8 6 5 5 5 6 6 6 6 6 6 7
4 4 8 11 8 11 11 18 18 18 17 14 19 11 16 17 15 14 19 21 23 23 21 21 21 22 20 18 16 15 14 12 9 6 5 5 5 5 6 7 8 9 8 9
1 2 6 12 8 12 4 1 16 19 20 16 20 6 17 18 17 18 20 22 22 21 21 21 21 20 20 19 17 17 16 15 11 8 7 6 7 6 7 7 9 10 11 11
0 5 3 2 7 12 7 6 1 15 13 9 19 11 17 17 19 18 21 24 22 21 20 18 17 19 19 20 19 19 19 17 14 11 8 9 8 8 8 9 10 11 11 12
3 1 1 4 6 7 9 11 4 6 5 9 6 5 4 19 18 21 20 25 24 21 20 18 20 21 21 21 21 21 20 19 15 12 11 10 9 10 10 11 11 10 11 12
3 4 2 3 3 4 9 8 4 6 6 6 3 8 6 11 6 5 18 22 22 19 18 18 18 20 21 21 21 21 20 18 16 14 12 11 11 11 11 10 11 11 11 13
2 2 1 3 4 5 5 5 3 4 4 8 7 5 6 8 7 10 13 17 18 19 18 18 17 16 16 17 17 17 17 17 14 13 12 12 11 10 10 10 9 10 12 13
2 1 2 2 2 1 2 5 2 3 5 9 7 12 4 11 12 12 13 18 19 18 17 16 16 15 15 14 13 14 14 13 12 12 12 11 11 11 10 10 10 11 12 13
7 3 3 2 3 3 3 4 3 4 3 2 8 9 5 9 13 14 13 18 20 19 18 16 15 15 14 13 13 12 11 10 10 10 10 10 10 9 9 9 9 10 11 12
5 4 2 2 2 4 6 7 9 3 2 1 3 4 2 4 11 15 17 18 18 18 17 16 16 15 14 13 11 10 9 8 6 5 5 5 4 4 5 7 8 10 10 10
7 3 3 3 3 2 3 2 2 7 3 2 4 5 2 5 10 16 18 19 19 19 18 16 15 14 13 12 11 9 7 6 5 5 5 5 5 5 5 5 4 5 7 9
3 4 6 4 2 3 3 4 2 5 3 2 5 7 6 7 12 14 18 18 18 18 18 15 15 14 13 11 9 7 6 5 5 4 5 5 4 3 1 1 4 6 9 11
3 5 4 2 3 2 2 4 5 5 5 4 5 5 7 7 12 17 18 19 19 19 18 17 16 14 12 10 8 6 5 5 4 5 5 5 4 2 2 3 5 8 10 13
1 4 3 2 0 3 4 7 7 8 7 7 7 10 3 9 14 17 18 19 19 20 19 18 16 14 11 9 7 6 6 6 6 6 7 5 3 2 3 5 7 11 14 18
1 2 4 1 1 2 6 14 12 6 7 7 7 3 6 4 10 16 18 20 21 21 20 19 16 14 11 9 8 7 7 7 8 8 6 4 3 3 5 8 12 16 19 22
3 5 2 3 3 4 1 4 4 12 7 12 8 0 2 3 5 9 14 18 19 19 19 18 15 14 12 10 9 8 8 9 9 7 6 5 4 6 10 13 17 20 23 25
3 4 2 3 4 9 5 3 4 6 2 10 12 10 8 1 1 5 12 15 16 17 18 17 16 13 12 9 8 8 9 9 8 7 5 5 7 11 14 18 21 24 26 27
2 5 4 2 3 3 4 4 2 1 4 3 1 4 6 7 6 2 12 14 15 17 17 18 16 13 10 9 9 10 10 8 7 6 6 8 11 15 18 22 25 26 28 29
3 4 8 7 3 6 5 6 4 4 3 1 2 4 6 6 1 5 10 13 14 17 18 17 13 10 10 10 10 10 8 7 6 6 8 11 15 19 22 25 27 28 28 30
6 5 4 5 5 5 9 5 3 4 3 2 2 2 4 6 4 8 11 15 16 17 16 14 13 12 10 10 10 8 7 6 7 9 12 15 19 22 25 26 27 28 29 30
3 3 2 4 2 2 10 1 3 2 4 3 3 3 6 7 8 10 13 14 15 15 14 12 10 10 11 10 9 7 7 6 8 11 15 18 22 24 25 26 27 28 28 30
5 5 3 3 4 11 11 10 7 4 2 2 2 4 8 9 11 13 14 14 13 12 11 11 11 11 10 8 6 6 6 8 11 15 18 21 23 24 25 26 27 28 30 31
1 7 5 6 11 7 8 8 8 11 11 8 5 6 10 10 11 12 13 12 12 11 11 11 11 10 8 6 5 5 8 11 14 17 19 22 23 25 27 27 28 30 31 32
10 6 6 2 3 2 5 5 7 6 7 7 7 8 11 11 11 11 11 11 11 12 12 11 10 8 6 4 5 8 11 13 16 19 20 21 23 25 27 30 33 32 33 34
Wind_Direction
188 193 208 223 218 232 248 245 199 200 184 196 206 215 178 180 183 175 173 172 174 176 174 172 175 182 187 192 193 196 203 218 230 244 273 283 292 321 322 324 316 309 313 315
181 235 228 224 255 237 240 242 197 199 164 195 202 211 178 181 182 178 174 175 176 173 175 177 181 190 195 198 198 203 211 219 225 243 258 248 287 306 307 313 305 304 305 304
221 325 212 200 206 256 244 219 192 167 187 205 184 191 178 182 184 180 182 178 176 179 179 182 186 195 198 203 205 210 215 219 229 247 263 266 288 299 309 304 302 299 293 297
268 278 233 226 213 232 229 209 187 173 180 182 188 188 197 181 183 188 184 183 184 184 186 185 190 197 203 207 210 213 217 224 232 248 262 271 281 275 298 301 302 297 295 295
13 250 254 216 198 217 251 216 222 172 196 173 191 248 184 175 193 191 188 189 188 186 186 188 194 202 207 211 215 217 221 227 235 247 261 271 270 280 292 301 300 296 298 294
128 217 292 287 190 241 274 180 214 192 208 186 188 207 174 189 196 184 189 189 187 185 187 187 193 200 208 215 218 219 224 230 236 248 261 265 267 277 286 296 298 298 299 301
291 59 318 208 220 176 219 168 157 165 197 188 184 203 49 178 191 192 184 187 186 184 182 183 193 202 209 217 219 220 225 231 236 248 259 264 268 273 283 289 290 289 296 299
332 138 30 342 254 212 197 192 157 189 167 144 168 216 111 99 91 84 174 179 175 175 180 184 196 206 211 217 219 222 226 228 236 246 257 261 267 275 283 285 282 290 297 299
299 43 29 4 332 323 171 210 97 283 291 159 169 163 131 145 144 144 144 153 166 171 168 173 180 189 196 204 211 216 219 223 232 244 251 262 267 271 279 284 291 302 305 307
329 105 33 35 292 98 298 124 28 204 222 170 179 186 148 179 170 160 159 164 163 161 161 161 167 174 178 186 190 196 204 214 227 240 251 257 262 268 277 284 297 306 307 307
305 288 111 289 3 347 164 204 198 280 299 235 160 194 21 176 174 166 161 159 160 160 159 157 161 169 170 169 177 189 200 213 227 237 245 255 262 273 276 285 295 300 303 304
19 312 207 121 0 315 306 325 314 261 226 321 310 114 42 93 162 163 158 157 159 157 156 155 161 161 159 165 171 178 187 201 218 232 244 252 256 262 275 287 298 306 315 319
2 255 194 176 224 216 274 335 328 302 338 322 311 92 104 130 160 164 160 159 158 155 154 156 153 155 162 167 173 186 198 220 238 248 250 248 253 263 276 294 317 334 332 328
300 296 301 277 14 341 205 220 227 303 297 60 46 80 148 157 169 167 165 163 163 160 158 159 160 165 167 174 185 198 219 242 249 242 231 233 240 235 198 333 322 324 327 326
345 308 341 333 15 285 293 278 212 221 268 296 30 13 56 156 174 172 169 170 167 165 167 172 172 171 175 186 197 215 233 236 227 213 207 195 169 180 272 307 323 327 329 329
232 297 312 265 53 330 301 267 246 234 270 282 282 298 153 129 156 171 177 176 177 175 178 179 175 173 178 194 207 220 227 222 203 186 172 174 205 239 295 319 326 328 329 330
232 292 324 319 272 254 258 247 222 207 210 235 233 342 124 154 173 181 183 185 187 185 183 179 180 184 190 204 214 215 217 200 183 176 187 209 231 280 306 319 325 326 326 325
234 217 191 295 240 225 201 24 347 224 227 227 256 4 22 56 176 202 195 192 191 187 182 180 179 185 197 208 210 216 201 187 184 196 210 228 264 297 313 319 322 324 324 325
250 252 233 255 236 292 180 213 169 182 240 226 242 254 230 151 209 216 191 195 191 184 180 179 184 188 200 210 213 203 193 192 200 213 234 265 293 309 316 320 323 323 324 324
252 257 267 198 263 271 56 135 167 201 243 115 337 274 273 180 225 142 178 177 174 174 171 176 180 190 198 206 200 193 195 201 215 233 263 292 306 313 319 321 321 322 320 319
180 214 228 236 277 284 105 132 153 196 85 356 314 289 249 200 314 112 145 150 162 167 171 179 182 185 193 197 191 192 198 213 235 264 289 304 312 315 318 319 318 317 319 319
197 190 200 213 230 262 144 125 233 84 102 52 354 326 187 161 121 124 134 145 157 167 167 171 178 187 193 188 188 193 208 234 261 286 303 309 312 316 318 318 320 319 317 316
238 250 331 236 243 65 191 45 153 108 93 64 46 110 149 148 140 139 138 144 154 161 168 174 182 183 182 184 188 194 230 258 287 301 307 313 315 318 320 319 317 316 316 315
231 205 241 318 196 239 231 227 227 205 163 339 9 156 151 144 147 146 150 154 159 166 170 174 174 174 179 184 193 219 257 286 300 307 311 315 318 319 318 317 317 316 316 317
0 161 224 254 270 240 240 212 227 232 237 251 236 182 168 163 156 158 159 160 165 170 169 167 168 171 178 187 214 262 286 297 305 313 318 318 318 318 319 319 318 316 315 316
187 195 195 263 96 46 94 139 191 213 215 204 195 176 177 173 173 168 164 169 169 166 166 167 168 175 188 220 261 283 302 313 317 317 318 319 321 323 322 321 320 319 318 318